Eldorado — WDE8374 — position and weather

sailwx.info

Track history (hours):
 
Tides and Currents Weather Stations Pressure Air Temp Water Temp Dewpoint Dewpoint Depression Visibility Wind Speed Wind Dir Waves Ship Positions

Eldorado

Owner: FUKUTO / REDLEW CHARTERS, INC., CYPRESS, CA. More information available from US FCC via Universal Licensing System and Coast Guard Vessel Documentation Center.

Last reported at 2017-Sep-22 02:00 UTC. Time now 2017-Sep-23 16:26 UTC.
Position N 33°46' W 118°13'.

Length 28 m.

Type: Passenger vessel. MMSI: 367404740.

Date/timePositionNaut miles runAvg speedWind from/ knotsBaromVisibWave heightAir tempDewpointWater temp
2017-Sep-22 02:00N 33°46' W 118°13'0 0.0
2017-Sep-22 01:30N 33°46' W 118°13'0 0.0
2017-Sep-22 01:00N 33°46' W 118°13'0 0.0
2017-Sep-22 00:30N 33°46' W 118°13'0 0.0
2017-Sep-21 23:23N 33°46' W 118°13'0 0.0
2017-Sep-21 23:00N 33°46' W 118°13'0 0.0
2017-Sep-21 22:30N 33°46' W 118°13'0 0.0
2017-Sep-21 21:59N 33°46' W 118°13'0 0.0
2017-Sep-21 21:30N 33°46' W 118°13'0 0.0
2017-Sep-21 21:00N 33°46' W 118°13'0 0.0
2017-Sep-21 20:30N 33°46' W 118°13'0 0.0
2017-Sep-21 20:00N 33°46' W 118°13'0 0.0
2017-Sep-21 19:30N 33°46' W 118°13'0 0.0
2017-Sep-21 19:00N 33°46' W 118°13'0 0.0
2017-Sep-21 18:30N 33°46' W 118°13'0 0.0
2017-Sep-21 18:00N 33°46' W 118°13'0 0.0
2017-Sep-21 17:30N 33°46' W 118°13'0 0.0
2017-Sep-21 17:00N 33°46' W 118°13'0 0.0
2017-Sep-21 16:30N 33°46' W 118°13'0 0.0
2017-Sep-21 16:00N 33°46' W 118°13'0 0.0
2017-Sep-21 15:29N 33°46' W 118°13'0 0.0
2017-Sep-21 15:00N 33°46' W 118°13'0 0.0
2017-Sep-21 14:30N 33°46' W 118°13'0 0.0
2017-Sep-21 13:58N 33°46' W 118°13'0 0.0
2017-Sep-21 13:30N 33°46' W 118°13'0 0.0
2017-Sep-21 12:58N 33°46' W 118°13'0 0.0
2017-Sep-21 12:29N 33°46' W 118°13'0 0.0
2017-Sep-21 12:00N 33°46' W 118°13'0 0.0
2017-Sep-21 11:30N 33°46' W 118°13'0 0.0
2017-Sep-21 11:00N 33°46' W 118°13'4 7.1
2017-Sep-21 10:29N 33°43' W 118°14'510.2
2017-Sep-21 10:00N 33°38' W 118°15'1910.3
2017-Sep-21 08:10N 33°19' W 118°18'21 1.1
2017-Sep-20 14:00N 32°59' W 118°12'3 5.7
2017-Sep-20 13:30N 32°57' W 118°09'2 3.2
2017-Sep-20 12:58N 32°59' W 118°09'0 0.5
2017-Sep-20 12:30N 32°59' W 118°08'0 0.6
2017-Sep-20 12:00N 32°59' W 118°08'2 4.0
2017-Sep-20 11:30N 32°59' W 118°06'4 7.7
2017-Sep-20 11:01N 32°58' W 118°01'4 7.6
2017-Sep-20 10:28N 32°58' W 117°57'21 6.9
2017-Sep-20 07:27N 33°19' W 118°02'  
2017-Sep-17 06:27N 33°18' W 118°18'2010.8
2017-Sep-17 04:35N 33°37' W 118°15'110.9
2017-Sep-17 04:30N 33°38' W 118°15'510.4
2017-Sep-17 04:00N 33°43' W 118°14'3 6.3
2017-Sep-17 03:30N 33°46' W 118°13'0 0.0
2017-Sep-17 03:00N 33°46' W 118°13'0 0.0
2017-Sep-17 02:30N 33°46' W 118°13'0 0.8
2017-Sep-17 02:00N 33°46' W 118°13'4 7.9
2017-Sep-17 01:30N 33°43' W 118°11'510.7
2017-Sep-17 01:00N 33°37' W 118°10'610.0
2017-Sep-17 00:25N 33°31' W 118°09'54 3.9
2017-Sep-16 10:40N 32°39' W 117°58'1 7.1
2017-Sep-16 10:30N 32°40' W 117°58'3 5.4
2017-Sep-16 10:00N 32°42' W 117°59'510.8
2017-Sep-16 09:30N 32°48' W 117°60'510.6
2017-Sep-16 09:01N 32°53' W 118°00'510.8
2017-Sep-16 08:30N 32°58' W 118°01'510.8
2017-Sep-16 08:00N 33°04' W 118°02'510.7
2017-Sep-16 07:30N 33°09' W 118°03'510.7
2017-Sep-16 07:00N 33°14' W 118°04'510.6
2017-Sep-16 06:30N 33°19' W 118°04'610.9
2017-Sep-16 05:55N 33°26' W 118°05'511.4
2017-Sep-16 05:27N 33°31' W 118°06'511.6
2017-Sep-16 05:00N 33°36' W 118°07'611.5
2017-Sep-16 04:30N 33°42' W 118°08'2 3.4
2017-Sep-16 04:00N 33°44' W 118°08'3 5.7
2017-Sep-16 03:30N 33°44' W 118°12'2 5.0
2017-Sep-16 03:00N 33°46' W 118°13'0 0.0
2017-Sep-16 02:30N 33°46' W 118°13'0 0.0
2017-Sep-16 02:00N 33°46' W 118°13'3 6.3
2017-Sep-16 01:30N 33°43' W 118°14'55 4.8
2017-Sep-15 14:04N 32°52' W 118°39'1 8.8
2017-Sep-15 14:00N 32°52' W 118°39'6 6.7
2017-Sep-15 13:04N 32°51' W 118°47'0 0.3
2017-Sep-15 12:55N 32°51' W 118°47'2 4.4
2017-Sep-15 12:22N 32°51' W 118°49'1 1.3
2017-Sep-15 11:34N 32°50' W 118°50'36 8.9
2017-Sep-15 07:32N 33°16' W 118°21'310.4
2017-Sep-15 07:14N 33°18' W 118°18'1610.4
2017-Sep-15 05:44N 33°33' W 118°12'310.6
2017-Sep-15 05:27N 33°35' W 118°11'510.4
2017-Sep-15 05:00N 33°40' W 118°09'4 3.7
2017-Sep-15 03:50N 33°44' W 118°12'3 7.6
2017-Sep-15 03:30N 33°46' W 118°13'0 0.2
2017-Sep-15 01:31N 33°46' W 118°13'0 0.0
2017-Sep-15 01:30N 33°46' W 118°13'0 0.0
2017-Sep-15 01:00N 33°46' W 118°13'1 1.0
2017-Sep-15 00:30N 33°46' W 118°13'4 7.3
2017-Sep-15 00:00N 33°43' W 118°15'2 3.5
2017-Sep-14 23:30N 33°44' W 118°17'0 0.0
2017-Sep-14 23:00N 33°44' W 118°17'3 5.5
2017-Sep-14 22:30N 33°44' W 118°13'2 0.1
2017-Sep-14 02:02N 33°42' W 118°15'010.4
2017-Sep-14 02:00N 33°42' W 118°15'510.5
2017-Sep-14 01:29N 33°37' W 118°16'1710.6
2017-Sep-13 23:54N 33°20' W 118°18'26 7.7
2017-Sep-13 20:28N 32°56' W 118°29'2 1.7
2017-Sep-13 19:31N 32°57' W 118°30'2 3.4
2017-Sep-13 18:47N 32°55' W 118°28'2 7.3
2017-Sep-13 18:30N 32°54' W 118°26'0 0.1
2017-Sep-13 17:59N 32°54' W 118°26'0 0.2
2017-Sep-13 17:30N 32°54' W 118°26'0 0.1
2017-Sep-13 17:00N 32°54' W 118°26'1 2.8
2017-Sep-13 16:30N 32°53' W 118°25'10 2.6
2017-Sep-13 12:53N 32°43' W 118°26'1 2.9
2017-Sep-13 12:31N 32°43' W 118°27'2 1.0
2017-Sep-13 10:16N 32°44' W 118°25'710.2
2017-Sep-13 09:34N 32°50' W 118°20'111.1
2017-Sep-13 09:30N 32°50' W 118°20'3010.6
2017-Sep-13 06:38N 33°20' W 118°13'410.5
2017-Sep-13 06:13N 33°24' W 118°12'610.5
2017-Sep-13 05:37N 33°30' W 118°11'910.8
2017-Sep-13 04:47N 33°39' W 118°09'310.8
2017-Sep-13 04:30N 33°42' W 118°08'2 3.1
2017-Sep-13 04:00N 33°44' W 118°09'4 1.9
2017-Sep-13 01:53N 33°46' W 118°13'0 0.0
2017-Sep-13 01:30N 33°46' W 118°13'0 0.0
2017-Sep-13 01:00N 33°46' W 118°13'0 0.0
2017-Sep-13 00:30N 33°46' W 118°13'0 0.0
2017-Sep-12 23:58N 33°46' W 118°13'0 0.0
2017-Sep-12 23:25N 33°46' W 118°13'0 0.0
2017-Sep-12 23:00N 33°46' W 118°13'0 0.0
2017-Sep-12 22:30N 33°46' W 118°13'0 0.0
2017-Sep-12 22:00N 33°46' W 118°13'0 0.0
2017-Sep-12 21:30N 33°46' W 118°13'0 0.0
2017-Sep-12 21:00N 33°46' W 118°13'0 0.0
2017-Sep-12 20:30N 33°46' W 118°13'0 0.0
2017-Sep-12 20:00N 33°46' W 118°13'0 0.0
2017-Sep-12 19:30N 33°46' W 118°13'0 0.0
2017-Sep-12 18:59N 33°46' W 118°13'0 0.0
2017-Sep-12 18:30N 33°46' W 118°13'0 0.0
2017-Sep-12 18:00N 33°46' W 118°13'0 0.0
2017-Sep-12 17:30N 33°46' W 118°13'0 0.0
2017-Sep-12 17:00N 33°46' W 118°13'0 0.0
2017-Sep-12 16:30N 33°46' W 118°13'0 0.0
2017-Sep-12 16:00N 33°46' W 118°13'0 0.0
2017-Sep-12 15:30N 33°46' W 118°13'0 0.0
2017-Sep-12 15:00N 33°46' W 118°13'0 0.0
2017-Sep-12 14:29N 33°46' W 118°13'0 0.0
2017-Sep-12 14:00N 33°46' W 118°13'0 0.0
2017-Sep-12 13:30N 33°46' W 118°13'0 0.0
2017-Sep-12 13:00N 33°46' W 118°13'0 0.0
2017-Sep-12 12:30N 33°46' W 118°13'0 0.0
2017-Sep-12 12:00N 33°46' W 118°13'0 0.0
2017-Sep-12 11:30N 33°46' W 118°13'0 0.0
2017-Sep-12 11:00N 33°46' W 118°13'0 0.0
2017-Sep-12 10:30N 33°46' W 118°13'0 0.0
2017-Sep-12 10:00N 33°46' W 118°13'0 0.0
2017-Sep-12 09:30N 33°46' W 118°13'0 0.0
2017-Sep-12 08:56N 33°46' W 118°13'0 0.0
2017-Sep-12 08:30N 33°46' W 118°13'0 0.0
2017-Sep-12 08:00N 33°46' W 118°13'0 0.0
2017-Sep-12 07:30N 33°46' W 118°13'0 0.0
2017-Sep-12 07:00N 33°46' W 118°13'0 0.0
2017-Sep-12 06:30N 33°46' W 118°13'0 0.0
2017-Sep-12 06:00N 33°46' W 118°13'0 0.0
2017-Sep-12 05:30N 33°46' W 118°13'0 0.0
2017-Sep-12 05:00N 33°46' W 118°13'0 0.0
2017-Sep-12 04:30N 33°46' W 118°13'0 0.0
2017-Sep-12 04:00N 33°46' W 118°13'0 0.0
2017-Sep-12 03:30N 33°46' W 118°13'0 0.0
2017-Sep-12 02:58N 33°46' W 118°13'0 0.0
2017-Sep-12 02:30N 33°46' W 118°13'  
Track history (hours):
 
Tides and Currents Weather Stations Pressure Air Temp Water Temp Dewpoint Dewpoint Depression Visibility Wind Speed Wind Dir Waves Ship Positions

Eldorado

Owner: FUKUTO / REDLEW CHARTERS, INC., CYPRESS, CA. More information available from US FCC via Universal Licensing System and Coast Guard Vessel Documentation Center.

Last reported at 2017-Sep-22 02:00 UTC. Time now 2017-Sep-23 16:26 UTC.
Position N 33°46' W 118°13'.

Length 28 m.

Type: Passenger vessel. MMSI: 367404740.

Date/timePositionNaut miles runAvg speedWind from/ knotsBaromVisibWave heightAir tempDewpointWater temp
2017-Sep-22 02:00N 33°46' W 118°13'0 0.0
2017-Sep-22 01:30N 33°46' W 118°13'0 0.0
2017-Sep-22 01:00N 33°46' W 118°13'0 0.0
2017-Sep-22 00:30N 33°46' W 118°13'0 0.0
2017-Sep-21 23:23N 33°46' W 118°13'0 0.0
2017-Sep-21 23:00N 33°46' W 118°13'0 0.0
2017-Sep-21 22:30N 33°46' W 118°13'0 0.0
2017-Sep-21 21:59N 33°46' W 118°13'0 0.0
2017-Sep-21 21:30N 33°46' W 118°13'0 0.0
2017-Sep-21 21:00N 33°46' W 118°13'0 0.0
2017-Sep-21 20:30N 33°46' W 118°13'0 0.0
2017-Sep-21 20:00N 33°46' W 118°13'0 0.0
2017-Sep-21 19:30N 33°46' W 118°13'0 0.0
2017-Sep-21 19:00N 33°46' W 118°13'0 0.0
2017-Sep-21 18:30N 33°46' W 118°13'0 0.0
2017-Sep-21 18:00N 33°46' W 118°13'0 0.0
2017-Sep-21 17:30N 33°46' W 118°13'0 0.0
2017-Sep-21 17:00N 33°46' W 118°13'0 0.0
2017-Sep-21 16:30N 33°46' W 118°13'0 0.0
2017-Sep-21 16:00N 33°46' W 118°13'0 0.0
2017-Sep-21 15:29N 33°46' W 118°13'0 0.0
2017-Sep-21 15:00N 33°46' W 118°13'0 0.0
2017-Sep-21 14:30N 33°46' W 118°13'0 0.0
2017-Sep-21 13:58N 33°46' W 118°13'0 0.0
2017-Sep-21 13:30N 33°46' W 118°13'0 0.0
2017-Sep-21 12:58N 33°46' W 118°13'0 0.0
2017-Sep-21 12:29N 33°46' W 118°13'0 0.0
2017-Sep-21 12:00N 33°46' W 118°13'0 0.0
2017-Sep-21 11:30N 33°46' W 118°13'0 0.0
2017-Sep-21 11:00N 33°46' W 118°13'4 7.1
2017-Sep-21 10:29N 33°43' W 118°14'510.2
2017-Sep-21 10:00N 33°38' W 118°15'1910.3
2017-Sep-21 08:10N 33°19' W 118°18'21 1.1
2017-Sep-20 14:00N 32°59' W 118°12'3 5.7
2017-Sep-20 13:30N 32°57' W 118°09'2 3.2
2017-Sep-20 12:58N 32°59' W 118°09'0 0.5
2017-Sep-20 12:30N 32°59' W 118°08'0 0.6
2017-Sep-20 12:00N 32°59' W 118°08'2 4.0
2017-Sep-20 11:30N 32°59' W 118°06'4 7.7
2017-Sep-20 11:01N 32°58' W 118°01'4 7.6
2017-Sep-20 10:28N 32°58' W 117°57'21 6.9
2017-Sep-20 07:27N 33°19' W 118°02'  
2017-Sep-17 06:27N 33°18' W 118°18'2010.8
2017-Sep-17 04:35N 33°37' W 118°15'110.9
2017-Sep-17 04:30N 33°38' W 118°15'510.4
2017-Sep-17 04:00N 33°43' W 118°14'3 6.3
2017-Sep-17 03:30N 33°46' W 118°13'0 0.0
2017-Sep-17 03:00N 33°46' W 118°13'0 0.0
2017-Sep-17 02:30N 33°46' W 118°13'0 0.8
2017-Sep-17 02:00N 33°46' W 118°13'4 7.9
2017-Sep-17 01:30N 33°43' W 118°11'510.7
2017-Sep-17 01:00N 33°37' W 118°10'610.0
2017-Sep-17 00:25N 33°31' W 118°09'54 3.9
2017-Sep-16 10:40N 32°39' W 117°58'1 7.1
2017-Sep-16 10:30N 32°40' W 117°58'3 5.4
2017-Sep-16 10:00N 32°42' W 117°59'510.8
2017-Sep-16 09:30N 32°48' W 117°60'510.6
2017-Sep-16 09:01N 32°53' W 118°00'510.8
2017-Sep-16 08:30N 32°58' W 118°01'510.8
2017-Sep-16 08:00N 33°04' W 118°02'510.7
2017-Sep-16 07:30N 33°09' W 118°03'510.7
2017-Sep-16 07:00N 33°14' W 118°04'510.6
2017-Sep-16 06:30N 33°19' W 118°04'610.9
2017-Sep-16 05:55N 33°26' W 118°05'511.4
2017-Sep-16 05:27N 33°31' W 118°06'511.6
2017-Sep-16 05:00N 33°36' W 118°07'611.5
2017-Sep-16 04:30N 33°42' W 118°08'2 3.4
2017-Sep-16 04:00N 33°44' W 118°08'3 5.7
2017-Sep-16 03:30N 33°44' W 118°12'2 5.0
2017-Sep-16 03:00N 33°46' W 118°13'0 0.0
2017-Sep-16 02:30N 33°46' W 118°13'0 0.0
2017-Sep-16 02:00N 33°46' W 118°13'3 6.3
2017-Sep-16 01:30N 33°43' W 118°14'55 4.8
2017-Sep-15 14:04N 32°52' W 118°39'1 8.8
2017-Sep-15 14:00N 32°52' W 118°39'6 6.7
2017-Sep-15 13:04N 32°51' W 118°47'0 0.3
2017-Sep-15 12:55N 32°51' W 118°47'2 4.4
2017-Sep-15 12:22N 32°51' W 118°49'1 1.3
2017-Sep-15 11:34N 32°50' W 118°50'36 8.9
2017-Sep-15 07:32N 33°16' W 118°21'310.4
2017-Sep-15 07:14N 33°18' W 118°18'1610.4
2017-Sep-15 05:44N 33°33' W 118°12'310.6
2017-Sep-15 05:27N 33°35' W 118°11'510.4
2017-Sep-15 05:00N 33°40' W 118°09'4 3.7
2017-Sep-15 03:50N 33°44' W 118°12'3 7.6
2017-Sep-15 03:30N 33°46' W 118°13'0 0.2
2017-Sep-15 01:31N 33°46' W 118°13'0 0.0
2017-Sep-15 01:30N 33°46' W 118°13'0 0.0
2017-Sep-15 01:00N 33°46' W 118°13'1 1.0
2017-Sep-15 00:30N 33°46' W 118°13'4 7.3
2017-Sep-15 00:00N 33°43' W 118°15'2 3.5
2017-Sep-14 23:30N 33°44' W 118°17'0 0.0
2017-Sep-14 23:00N 33°44' W 118°17'3 5.5
2017-Sep-14 22:30N 33°44' W 118°13'2 0.1
2017-Sep-14 02:02N 33°42' W 118°15'010.4
2017-Sep-14 02:00N 33°42' W 118°15'510.5
2017-Sep-14 01:29N 33°37' W 118°16'1710.6
2017-Sep-13 23:54N 33°20' W 118°18'26 7.7
2017-Sep-13 20:28N 32°56' W 118°29'2 1.7
2017-Sep-13 19:31N 32°57' W 118°30'2 3.4
2017-Sep-13 18:47N 32°55' W 118°28'2 7.3
2017-Sep-13 18:30N 32°54' W 118°26'0 0.1
2017-Sep-13 17:59N 32°54' W 118°26'0 0.2
2017-Sep-13 17:30N 32°54' W 118°26'0 0.1
2017-Sep-13 17:00N 32°54' W 118°26'1 2.8
2017-Sep-13 16:30N 32°53' W 118°25'10 2.6
2017-Sep-13 12:53N 32°43' W 118°26'1 2.9
2017-Sep-13 12:31N 32°43' W 118°27'2 1.0
2017-Sep-13 10:16N 32°44' W 118°25'710.2
2017-Sep-13 09:34N 32°50' W 118°20'111.1
2017-Sep-13 09:30N 32°50' W 118°20'3010.6
2017-Sep-13 06:38N 33°20' W 118°13'410.5
2017-Sep-13 06:13N 33°24' W 118°12'610.5
2017-Sep-13 05:37N 33°30' W 118°11'910.8
2017-Sep-13 04:47N 33°39' W 118°09'310.8
2017-Sep-13 04:30N 33°42' W 118°08'2 3.1
2017-Sep-13 04:00N 33°44' W 118°09'4 1.9
2017-Sep-13 01:53N 33°46' W 118°13'0 0.0
2017-Sep-13 01:30N 33°46' W 118°13'0 0.0
2017-Sep-13 01:00N 33°46' W 118°13'0 0.0
2017-Sep-13 00:30N 33°46' W 118°13'0 0.0
2017-Sep-12 23:58N 33°46' W 118°13'0 0.0
2017-Sep-12 23:25N 33°46' W 118°13'0 0.0
2017-Sep-12 23:00N 33°46' W 118°13'0 0.0
2017-Sep-12 22:30N 33°46' W 118°13'0 0.0
2017-Sep-12 22:00N 33°46' W 118°13'0 0.0
2017-Sep-12 21:30N 33°46' W 118°13'0 0.0
2017-Sep-12 21:00N 33°46' W 118°13'0 0.0
2017-Sep-12 20:30N 33°46' W 118°13'0 0.0
2017-Sep-12 20:00N 33°46' W 118°13'0 0.0
2017-Sep-12 19:30N 33°46' W 118°13'0 0.0
2017-Sep-12 18:59N 33°46' W 118°13'0 0.0
2017-Sep-12 18:30N 33°46' W 118°13'0 0.0
2017-Sep-12 18:00N 33°46' W 118°13'0 0.0
2017-Sep-12 17:30N 33°46' W 118°13'0 0.0
2017-Sep-12 17:00N 33°46' W 118°13'0 0.0
2017-Sep-12 16:30N 33°46' W 118°13'0 0.0
2017-Sep-12 16:00N 33°46' W 118°13'0 0.0
2017-Sep-12 15:30N 33°46' W 118°13'0 0.0
2017-Sep-12 15:00N 33°46' W 118°13'0 0.0
2017-Sep-12 14:29N 33°46' W 118°13'0 0.0
2017-Sep-12 14:00N 33°46' W 118°13'0 0.0
2017-Sep-12 13:30N 33°46' W 118°13'0 0.0
2017-Sep-12 13:00N 33°46' W 118°13'0 0.0
2017-Sep-12 12:30N 33°46' W 118°13'0 0.0
2017-Sep-12 12:00N 33°46' W 118°13'0 0.0
2017-Sep-12 11:30N 33°46' W 118°13'0 0.0
2017-Sep-12 11:00N 33°46' W 118°13'0 0.0
2017-Sep-12 10:30N 33°46' W 118°13'0 0.0
2017-Sep-12 10:00N 33°46' W 118°13'0 0.0
2017-Sep-12 09:30N 33°46' W 118°13'0 0.0
2017-Sep-12 08:56N 33°46' W 118°13'0 0.0
2017-Sep-12 08:30N 33°46' W 118°13'0 0.0
2017-Sep-12 08:00N 33°46' W 118°13'0 0.0
2017-Sep-12 07:30N 33°46' W 118°13'0 0.0
2017-Sep-12 07:00N 33°46' W 118°13'0 0.0
2017-Sep-12 06:30N 33°46' W 118°13'0 0.0
2017-Sep-12 06:00N 33°46' W 118°13'0 0.0
2017-Sep-12 05:30N 33°46' W 118°13'0 0.0
2017-Sep-12 05:00N 33°46' W 118°13'0 0.0
2017-Sep-12 04:30N 33°46' W 118°13'0 0.0
2017-Sep-12 04:00N 33°46' W 118°13'0 0.0
2017-Sep-12 03:30N 33°46' W 118°13'0 0.0
2017-Sep-12 02:58N 33°46' W 118°13'0 0.0
2017-Sep-12 02:30N 33°46' W 118°13'  

Dump ship's entire track history